When you browse on this site, cookies collect data to enhance your experience and personalize the content and advertising you see.
Visit our Privacy Policy to learn more. By continuing to use the site, you agree to this use of cookies and data.
  • In Deutschland
  • Länderverzeichnis
  • Für 7 Tage
  • Wassertemperatur
  • Wetterkarte
  • Widgets
  • user-avatar
    Anmelden

    Stündliche Wetter Visimo-Utkinsk

    Heute, 22 Februar, Samstag

    Zeit Temperatur Niederschläge Wind Luftdruck Luftfeuchtigkeit
    00:00 -6°C° 0 mm 0 m/S 739 mmHg 98%
    01:00 -6°C° 0 mm 0 m/S 739 mmHg 97%
    02:00 -7°C° 0 mm 0 m/S 739 mmHg 97%
    03:00 -7°C° 0 mm 0 m/S 740 mmHg 97%
    04:00 -6°C° 0 mm 1 m/S 740 mmHg 99%
    05:00 -6°C° 0 mm 1 m/S 740 mmHg 99%
    06:00 -6°C° 0 mm 1 m/S 740 mmHg 98%
    07:00 -4°C° 0 mm 1 m/S 740 mmHg 98%
    08:00 -4°C° 0 mm 1 m/S 741 mmHg 97%
    09:00 -3°C° 0 mm 1 m/S 741 mmHg 95%
    10:00 -2°C° 0 mm 1 m/S 742 mmHg 95%
    11:00 -4°C° 0 mm 2 m/S 742 mmHg 93%
    12:00 -3°C° 0 mm 2 m/S 742 mmHg 91%
    13:00 -3°C° 0 mm 2 m/S 742 mmHg 89%
    14:00 -3°C° 0 mm 2 m/S 742 mmHg 88%
    15:00 -3°C° 0 mm 2 m/S 742 mmHg 87%
    16:00 -2°C° 0 mm 2 m/S 742 mmHg 87%
    17:00 -3°C° 0 mm 2 m/S 742 mmHg 89%
    18:00 -4°C° 0 mm 2 m/S 742 mmHg 92%
    19:00 -4°C° 0 mm 2 m/S 742 mmHg 94%
    20:00 -4°C° 0.1 mm 2 m/S 742 mmHg 95%
    21:00 -5°C° 0.1 mm 2 m/S 742 mmHg 95%
    22:00 -5°C° 0.1 mm 2 m/S 742 mmHg 96%
    23:00 -5°C° 0 mm 2 m/S 742 mmHg 96%

    Morgen, 23 Februar, Sonntag

    Zeit Temperatur Niederschläge Wind Luftdruck Luftfeuchtigkeit
    00:00 -6°C° 0 mm 2 m/S 741 mmHg 96%
    01:00 -6°C° 0 mm 2 m/S 741 mmHg 97%
    02:00 -7°C° 0 mm 2 m/S 741 mmHg 97%
    03:00 -7°C° 0 mm 2 m/S 741 mmHg 96%
    04:00 -7°C° 0 mm 2 m/S 741 mmHg 96%
    05:00 -6°C° 0 mm 2 m/S 741 mmHg 96%
    06:00 -7°C° 0 mm 3 m/S 740 mmHg 95%
    07:00 -6°C° 0 mm 3 m/S 740 mmHg 95%
    08:00 -5°C° 0 mm 3 m/S 740 mmHg 93%
    09:00 -5°C° 0 mm 4 m/S 740 mmHg 91%
    10:00 -4°C° 0 mm 4 m/S 740 mmHg 89%
    11:00 -4°C° 0 mm 4 m/S 739 mmHg 88%
    12:00 -4°C° 0 mm 4 m/S 739 mmHg 87%
    13:00 -5°C° 0 mm 5 m/S 739 mmHg 86%
    14:00 -5°C° 0 mm 5 m/S 738 mmHg 85%
    15:00 -4°C° 0 mm 4 m/S 738 mmHg 85%
    16:00 -4°C° 0 mm 4 m/S 737 mmHg 84%
    17:00 -4°C° 0 mm 4 m/S 737 mmHg 86%
    18:00 -5°C° 0 mm 4 m/S 736 mmHg 88%
    19:00 -7°C° 0 mm 4 m/S 736 mmHg 91%
    20:00 -7°C° 0 mm 4 m/S 735 mmHg 89%
    21:00 -7°C° 0 mm 4 m/S 735 mmHg 88%
    22:00 -7°C° 0 mm 4 m/S 734 mmHg 87%
    23:00 -7°C° 0 mm 4 m/S 734 mmHg 87%

    übermorgen, 24 Februar, Montag

    Zeit Temperatur Niederschläge Wind Luftdruck Luftfeuchtigkeit
    00:00 -7°C° 0 mm 4 m/S 733 mmHg 88%
    01:00 -7°C° 0 mm 4 m/S 732 mmHg 88%
    02:00 -7°C° 0 mm 4 m/S 732 mmHg 89%
    03:00 -7°C° 0 mm 4 m/S 731 mmHg 89%
    04:00 -7°C° 0 mm 5 m/S 731 mmHg 90%
    05:00 -7°C° 0.1 mm 5 m/S 730 mmHg 90%
    06:00 -7°C° 0.1 mm 5 m/S 730 mmHg 91%
    07:00 -7°C° 0.1 mm 5 m/S 729 mmHg 92%
    08:00 -7°C° 0 mm 5 m/S 729 mmHg 90%
    09:00 -6°C° 0 mm 5 m/S 728 mmHg 88%
    10:00 -6°C° 0 mm 5 m/S 728 mmHg 86%
    11:00 -5°C° 0.2 mm 5 m/S 727 mmHg 88%
    12:00 -5°C° 0.2 mm 5 m/S 727 mmHg 91%
    13:00 -5°C° 0.2 mm 5 m/S 726 mmHg 93%
    14:00 -4°C° 0.3 mm 5 m/S 726 mmHg 93%
    15:00 -4°C° 0.3 mm 5 m/S 725 mmHg 92%
    16:00 -4°C° 0.3 mm 5 m/S 725 mmHg 92%
    17:00 -4°C° 0.1 mm 5 m/S 725 mmHg 92%
    18:00 -4°C° 0.1 mm 5 m/S 724 mmHg 91%
    19:00 -5°C° 0.1 mm 5 m/S 724 mmHg 91%
    20:00 -5°C° 0.2 mm 5 m/S 724 mmHg 91%
    21:00 -4°C° 0.2 mm 5 m/S 724 mmHg 92%
    22:00 -4°C° 0.2 mm 5 m/S 724 mmHg 92%
    23:00 -4°C° 0.1 mm 6 m/S 724 mmHg 92%

    25 Februar, Dienstag

    Zeit Temperatur Niederschläge Wind Luftdruck Luftfeuchtigkeit
    00:00 -5°C° 0.1 mm 6 m/S 725 mmHg 91%
    01:00 -5°C° 0.1 mm 6 m/S 725 mmHg 91%
    02:00 -5°C° 0 mm 5 m/S 725 mmHg 91%
    03:00 -6°C° 0 mm 5 m/S 726 mmHg 91%
    04:00 -5°C° 0 mm 4 m/S 727 mmHg 92%
    05:00 -5°C° 0 mm 4 m/S 727 mmHg 91%
    06:00 -5°C° 0 mm 4 m/S 727 mmHg 91%
    07:00 -5°C° 0 mm 4 m/S 728 mmHg 91%
    08:00 -4°C° 0 mm 4 m/S 728 mmHg 90%
    09:00 -4°C° 0 mm 4 m/S 728 mmHg 88%
    10:00 -3°C° 0 mm 4 m/S 728 mmHg 87%
    11:00 -2°C° 0 mm 3 m/S 728 mmHg 87%
    12:00 -1°C° 0 mm 3 m/S 728 mmHg 87%
    13:00 -1°C° 0 mm 3 m/S 728 mmHg 86%
    14:00 -1°C° 0 mm 3 m/S 728 mmHg 87%
    15:00 -1°C° 0 mm 3 m/S 728 mmHg 88%
    16:00 -1°C° 0 mm 3 m/S 728 mmHg 89%
    17:00 -2°C° 0 mm 2 m/S 727 mmHg 91%
    18:00 -2°C° 0 mm 2 m/S 727 mmHg 93%
    19:00 -3°C° 0 mm 2 m/S 727 mmHg 95%
    20:00 -4°C° 0 mm 2 m/S 727 mmHg 95%
    21:00 -4°C° 0 mm 2 m/S 727 mmHg 95%
    22:00 -5°C° 0 mm 2 m/S 726 mmHg 95%
    23:00 -5°C° 0 mm 2 m/S 726 mmHg 94%

    26 Februar, Mittwoch

    Zeit Temperatur Niederschläge Wind Luftdruck Luftfeuchtigkeit
    00:00 -5°C° 0 mm 2 m/S 726 mmHg 94%
    01:00 -3°C° 0 mm 1 m/S 725 mmHg 94%
    02:00 -5°C° 0 mm 2 m/S 725 mmHg 94%
    03:00 -5°C° 0 mm 2 m/S 725 mmHg 95%
    04:00 -5°C° 0 mm 2 m/S 724 mmHg 96%
    05:00 -4°C° 0 mm 2 m/S 724 mmHg 96%
    06:00 -3°C° 0 mm 2 m/S 723 mmHg 96%
    07:00 -2°C° 0 mm 2 m/S 723 mmHg 96%
    08:00 -2°C° 0.3 mm 2 m/S 723 mmHg 96%
    09:00 -1°C° 0.3 mm 2 m/S 722 mmHg 97%
    10:00 -1°C° 0.3 mm 2 m/S 722 mmHg 98%
    11:00 -1°C° 0.5 mm 2 m/S 722 mmHg 99%
    12:00 +2°C° 0.5 mm 1 m/S 722 mmHg 99%
    13:00 +2°C° 0.5 mm 1 m/S 721 mmHg 99%
    14:00 +2°C° 0.4 mm 1 m/S 721 mmHg 99%
    15:00 +1°C° 0.4 mm 1 m/S 721 mmHg 99%
    16:00 +1°C° 0.4 mm 1 m/S 721 mmHg 99%
    17:00 -1°C° 0.3 mm 2 m/S 722 mmHg 97%
    18:00 -1°C° 0.3 mm 3 m/S 722 mmHg 96%
    19:00 -3°C° 0.3 mm 4 m/S 722 mmHg 95%
    20:00 -3°C° 0 mm 4 m/S 723 mmHg 93%
    21:00 -4°C° 0 mm 4 m/S 723 mmHg 92%
    22:00 -6°C° 0 mm 5 m/S 724 mmHg 91%
    23:00 -7°C° 0 mm 5 m/S 724 mmHg 91%

    27 Februar, Donnerstag

    Zeit Temperatur Niederschläge Wind Luftdruck Luftfeuchtigkeit
    00:00 -7°C° 0 mm 5 m/S 724 mmHg 91%
    01:00 -8°C° 0 mm 5 m/S 725 mmHg 91%
    02:00 -9°C° 0 mm 4 m/S 725 mmHg 93%
    03:00 -10°C° 0 mm 4 m/S 726 mmHg 94%
    04:00 -12°C° 0 mm 3 m/S 726 mmHg 95%
    05:00 -12°C° 0 mm 3 m/S 726 mmHg 94%
    06:00 -12°C° 0 mm 2 m/S 726 mmHg 94%
    07:00 -13°C° 0 mm 2 m/S 726 mmHg 93%
    08:00 -12°C° 0 mm 3 m/S 726 mmHg 90%
    09:00 -9°C° 0 mm 3 m/S 726 mmHg 88%
    10:00 -8°C° 0 mm 4 m/S 727 mmHg 86%
    11:00 -7°C° 0 mm 5 m/S 727 mmHg 87%
    12:00 -6°C° 0 mm 5 m/S 727 mmHg 88%
    13:00 -5°C° 0 mm 5 m/S 727 mmHg 89%
    14:00 -5°C° 0 mm 5 m/S 727 mmHg 90%
    15:00 -4°C° 0 mm 5 m/S 728 mmHg 90%
    16:00 -4°C° 0 mm 5 m/S 728 mmHg 90%
    17:00 -2°C° 0 mm 5 m/S 729 mmHg 90%
    18:00 -2°C° 0 mm 5 m/S 729 mmHg 90%
    19:00 -2°C° 0 mm 5 m/S 730 mmHg 89%
    20:00 -2°C° 0 mm 5 m/S 730 mmHg 90%
    21:00 -2°C° 0 mm 4 m/S 731 mmHg 90%
    22:00 -3°C° 0 mm 4 m/S 731 mmHg 90%
    23:00 -3°C° 0 mm 4 m/S 731 mmHg 91%
    Mehr zeigen